Content
SEND FEEDBACK

Australia Flag

COROWA, NEW SOUTH WALES


Home > Oceania > Australia > New South Wales
Elevation: 469 feet     Latitude: 35 59S     Longitude: 146 21E

WEATHER
 
SELECT A DAY
Number of Records: 151,262;   Date Range: 2/21/03 - 3/22/16
 
SHARE

PRINT THIS DATA

[ ← Previous Day ]
WEATHER ALMANAC - FEBRUARY 12, 2013
[ Next Day → ]
[ °C ]   °F
Weather ElementAverageHighLow
Temperature77 °F93.2 °F (6:00 pm)57.2 °F (7:00 am)
Dewpoint49.2 °F55.4 °F (1:00 pm)39.2 °F (7:00 pm)
Humidity40.5 %77 % (6:00 am)9 % (6:00 pm)
Barometer30.01 in30.09 in (9:00 am)29.94 in (6:00 pm)
Wind Speed4.8 mph12.7 mph (1:00 am)
Weather ElementAverage
Wind DirectionESE (118.6 °)

Weather ElementTotal
Precipitation---
Cooling Degree Days10.2 (Base 65)
Growing Degree Days25.2 (Base 50)
Averaged from 30 records on February 12, 2013
WEATHER CONDITIONS BREAKOUT
WIND DIRECTION BREAKOUT
WEATHER BY HOUR - FEBRUARY 12, 2013
[ °C ]   °F
Local TimeTemperatureDewpointHumidityBarometerVisibilityWind DirectionWind SpeedGust SpeedPrecipitationEventsConditions
12:00 AM66.2 °F42.8 °F43 %29.98 inSSW (210°)5.8 mph
1:00 AM66.2 °F46.4 °F49 %30.01 inNNE (20°)12.7 mph
2:00 AM64.4 °F48.2 °F56 %30.01 inENE (60°)5.8 mph
3:00 AM62.0 °F49.0 °F51 %30.02 inCalm
3:00 AM62.6 °F48.2 °F59 %30.04 inCalm
4:00 AM64.4 °F51.8 °F64 %30.04 inNE (40°)5.8 mph
5:00 AM60.8 °F51.8 °F72 %30.04 inCalm
6:00 AM59.0 °F51.8 °F77 %30.04 inCalm
6:00 AM60.0 °F51.0 °F64 %30.04 inCalm
7:00 AM57.2 °F50.0 °F77 %30.06 inSE (140°)1.2 mph
8:00 AM64.4 °F51.8 °F64 %30.06 inSouth (190°)4.6 mph
9:00 AM71.6 °F51.8 °F50 %30.09 inSE (130°)2.3 mph
10:00 AM75.2 °F51.8 °F44 %30.09 inESE (110°)4.6 mph
11:00 AM80.6 °F51.8 °F37 %30.06 inEast (80°)6.9 mph
12:00 PM82.4 °F53.6 °F37 %30.06 inWNW (290°)6.9 mph
12:00 PM83.0 °F54.0 °F27 %30.05 inWNW (290°)6.9 mph
1:00 PM86.0 °F55.4 °F35 %30.04 inESE (110°)4.6 mph
2:00 PM87.8 °F53.6 °F31 %30.01 inENE (60°)2.3 mph
3:00 PM90.0 °F49.0 °F15 %29.99 inEast (80°)9.2 mph
3:00 PM91.4 °F48.2 °F23 %30.01 inEast (80°)9.2 mph
4:00 PM91.4 °F46.4 °F21 %29.98 inSE (140°)4.6 mph
5:00 PM91.4 °F42.8 °F18 %29.95 inNNE (20°)4.6 mph
6:00 PM93.2 °F41.0 °F16 %29.95 inSW (230°)4.6 mph
6:00 PM92.0 °F41.0 °F9 %29.94 inSW (230°)4.6 mph
7:00 PM93.2 °F39.2 °F15 %29.95 inCalm
8:00 PM89.6 °F39.2 °F17 %29.95 inWest (270°)2.3 mph
9:00 PM83.0 °F53.0 °F25 %29.97 inESE (120°)9.2 mph
9:00 PM82.4 °F53.6 °F37 %29.98 inESE (120°)9.2 mph
10:00 PM80.6 °F53.6 °F39 %30.01 inSE (130°)8.1 mph
11:00 PM77.0 °F53.6 °F44 %30.01 inSouth (170°)6.9 mph
Hourly data recorded from YWGT, located miles away from Corowa, New South Wales




STORIES FROM OUR PARTNERS